Akron, OH

8:18 PM EDT on April 27, 2017 (GMT -0400)
Akron Fulton International

Weather History for KAKR - February, 2013

Change the Weather History Date:

Saturday, February 23, 2013

  Actual Average (KCAK) Record (KCAK)
Temperature  
Mean Temperature 32 °F -  
Max Temperature 37 °F 41 °F 69 °F (2017)
Min Temperature 28 °F 25 °F -5 °F (2015)
Degree Days  
Heating Degree Days 32    
Moisture  
Dew Point 26 °F    
Average Humidity 73    
Maximum Humidity 85    
Minimum Humidity 62    
Precipitation  
Precipitation 0.00 in - - ()
Sea Level Pressure  
Sea Level Pressure 29.92 in    
Wind  
Wind Speed 7 mph (West)    
Max Wind Speed 14 mph    
Max Gust Speed -    
Visibility 10 miles    
Events      
Averages and records for this station are not official NWS values.
T = Trace of Precipitation, MM = Missing Value Source: NWS Daily Summary

Daily Weather History Graph

Daily Weather History Graph

Search for Another Location

Airport or City:

Trip Planner

Search our weather history database for the weather conditions in past years. The results will help you decide how hot, cold, wet, or windy it might be!

Date:

Astronomy

Feb. 23, 2013 Rise Set
Actual Time 7:08 AM EST 6:10 PM EST
Civil Twilight 6:40 AM EST 6:38 PM EST
Nautical Twilight 6:09 AM EST 7:09 PM EST
Astronomical Twilight 5:37 AM EST 7:41 PM EST
Moon 4:18 PM EST (2/23) 5:31 AM EST (2/23)
Length of Visible Light 11h 57m
Length of Day
11h 01m
Waxing Gibbous, 95% of the Moon is Illuminated
Feb 23
Waxing Gibbous
Feb 25
Full
Mar 4
Last Quarter
Mar 11
New
Mar 19
First Quarter

Hourly Weather History & Observations

Time (EST) Temp. Windchill Dew Point Humidity Pressure Visibility Wind Dir Wind Speed Gust Speed Precip Events Conditions
12:37 AM 35.6 °F 30.7 °F 30.2 °F 81% 29.95 in 10.0 mi SSW 5.8 mph - N/A   Overcast
12:54 AM 35.1 °F 32.2 °F 30.9 °F 85% 29.97 in 10.0 mi SW 3.5 mph - N/A   Overcast
1:54 AM 35.1 °F 31.0 °F 30.0 °F 82% 29.97 in 10.0 mi South 4.6 mph - N/A   Overcast
2:54 AM 35.1 °F 31.0 °F 30.0 °F 82% 29.95 in 10.0 mi South 4.6 mph - N/A   Overcast
3:54 AM 35.1 °F 31.0 °F 28.9 °F 78% 29.93 in 10.0 mi SSW 4.6 mph - N/A   Overcast
4:54 AM 35.1 °F 29.3 °F 28.9 °F 78% 29.94 in 10.0 mi SSW 6.9 mph - N/A   Overcast
5:54 AM 35.1 °F 30.1 °F 28.9 °F 78% 29.94 in 10.0 mi SSW 5.8 mph - N/A   Overcast
6:54 AM 35.1 °F 28.6 °F 28.0 °F 76% 29.94 in 10.0 mi SW 8.1 mph - N/A   Overcast
7:54 AM 35.1 °F 29.3 °F 28.9 °F 78% 29.94 in 10.0 mi SW 6.9 mph - N/A   Overcast
8:54 AM 36.0 °F 31.1 °F 28.9 °F 76% 29.94 in 9.0 mi WSW 5.8 mph - N/A   Overcast
9:54 AM 35.1 °F 27.9 °F 28.9 °F 78% 29.94 in 8.0 mi West 9.2 mph - N/A   Overcast
10:54 AM 35.1 °F 25.9 °F 27.0 °F 72% 29.94 in 10.0 mi WNW 13.8 mph - N/A   Overcast
11:54 AM 36.0 °F 27.5 °F 27.0 °F 70% 29.93 in 10.0 mi West 12.7 mph - N/A   Overcast
12:24 PM 35.6 °F 28.0 °F 26.6 °F 70% 29.89 in 10.0 mi West 10.4 mph - N/A   Overcast
12:33 PM 35.6 °F 29.2 °F 26.6 °F 70% 29.89 in 9.0 mi WNW 8.1 mph - N/A   Overcast
12:54 PM 35.1 °F 28.6 °F 27.0 °F 72% 29.92 in 9.0 mi WNW 8.1 mph - N/A   Overcast
1:54 PM 35.1 °F 27.9 °F 26.1 °F 70% 29.91 in 9.0 mi West 9.2 mph - N/A   Overcast
2:54 PM 37.0 °F 29.8 °F 26.1 °F 65% 29.91 in 10.0 mi West 10.4 mph - N/A   Overcast
3:54 PM 37.0 °F 31.6 °F 25.0 °F 62% 29.88 in 10.0 mi WNW 6.9 mph - N/A   Mostly Cloudy
4:24 PM 35.6 °F 29.9 °F 24.8 °F 65% 29.86 in 10.0 mi West 6.9 mph - N/A   Mostly Cloudy
4:54 PM 36.0 °F 30.3 °F 24.1 °F 62% 29.88 in 10.0 mi West 6.9 mph - N/A   Overcast
5:54 PM 34.0 °F 27.2 °F 24.1 °F 67% 29.91 in 10.0 mi WNW 8.1 mph - N/A   Mostly Cloudy
6:54 PM 30.9 °F 23.5 °F 23.0 °F 72% 29.92 in 10.0 mi NW 8.1 mph - N/A   Clear
7:54 PM 30.0 °F 26.5 °F 21.9 °F 72% 29.91 in 10.0 mi NW 3.5 mph - N/A   Clear
8:54 PM 30.0 °F - 21.9 °F 72% 29.91 in 10.0 mi Calm Calm - N/A   Clear
9:54 PM 28.9 °F 23.9 °F 21.9 °F 75% 29.92 in 10.0 mi NW 4.6 mph - N/A   Clear
10:54 PM 30.0 °F 24.1 °F 21.9 °F 72% 29.90 in 9.0 mi NNW 5.8 mph - N/A   Scattered Clouds
11:01 PM 30.2 °F 24.3 °F 21.2 °F 69% 29.87 in 9.0 mi NNW 5.8 mph - N/A   Mostly Cloudy
11:54 PM 30.0 °F 23.2 °F 21.9 °F 72% 29.88 in 10.0 mi North 6.9 mph - N/A   Overcast